Wind_Speed
39 39 38 38 37 37 37 37 37 37 36 37 37 37 36 36 35 35 35 36 37 37 37 37 37 37 37 37 37 36 36 36 35 35 35 34 34 34 34 34 34 33 34
41 40 40 39 39 39 38 38 38 38 37 37 37 37 37 37 37 37 37 37 38 38 38 38 38 38 38 37 37 37 37 37 36 36 36 35 35 34 34 34 34 33 33
42 42 41 41 41 40 40 40 39 39 39 39 38 38 38 38 39 39 38 38 38 38 38 38 38 38 38 38 37 37 37 37 37 37 37 37 36 36 35 35 34 34 34
42 42 43 42 41 41 41 41 40 40 40 40 40 38 38 39 39 39 39 39 38 38 38 38 38 37 37 37 37 37 37 37 37 38 38 38 37 37 36 36 35 35 35
44 44 44 43 42 42 42 42 42 41 41 41 40 39 39 39 39 39 39 39 38 38 37 37 37 37 37 37 38 38 37 37 38 38 38 38 38 38 37 37 37 36 36
44 44 44 44 43 42 42 42 42 42 42 42 41 40 39 39 39 39 39 39 39 38 37 37 36 37 37 38 38 38 38 38 38 38 38 38 38 38 37 37 37 36 37
43 43 44 44 44 43 43 43 43 42 42 42 42 41 40 39 39 39 39 38 38 38 39 39 38 37 37 37 38 39 39 39 38 38 37 38 38 37 37 37 38 37 37
41 42 43 43 43 44 43 43 43 43 43 42 42 41 41 40 40 40 39 39 38 39 40 40 39 38 38 38 38 39 39 39 38 38 37 38 38 37 37 38 38 38 38
41 41 42 43 43 43 43 43 43 43 42 42 42 42 41 40 40 40 40 40 40 40 40 40 40 40 39 39 39 38 39 39 39 39 38 38 38 38 38 38 38 38 38
41 40 40 41 42 42 42 42 42 41 42 42 42 42 41 41 41 40 39 40 40 41 41 40 40 39 39 39 39 39 39 38 39 39 38 38 38 38 38 38 38 37 38
41 40 40 40 41 42 42 42 41 41 41 40 41 41 41 41 40 40 40 39 39 40 40 40 40 39 39 39 39 38 38 37 38 39 39 38 38 38 38 37 37 37 37
39 39 39 39 40 40 40 40 41 40 40 40 41 40 40 40 39 40 39 39 39 39 39 40 40 40 40 39 38 37 37 37 37 38 38 39 38 38 37 37 37 37 37
37 37 38 39 38 38 38 39 40 40 40 40 40 39 40 39 40 39 39 39 39 38 38 38 39 39 39 39 38 38 37 37 37 38 38 38 38 38 37 37 37 37 37
34 35 35 36 37 37 37 38 39 39 39 39 39 39 40 40 40 39 39 38 37 37 37 38 38 38 38 37 38 38 37 37 37 38 38 37 36 37 37 37 35 35 36
32 32 34 34 34 35 35 36 37 38 37 37 38 39 39 40 40 40 38 38 38 37 36 37 37 37 37 37 38 38 38 37 36 37 36 36 35 35 36 35 35 34 34
32 32 33 34 33 33 34 35 37 37 37 36 37 38 38 39 38 38 38 37 38 37 37 36 37 37 37 38 38 39 39 38 37 36 36 35 36 36 36 35 34 33 34
32 33 33 33 33 33 34 34 36 36 36 37 37 37 37 36 36 36 37 37 36 36 36 36 37 37 38 38 38 39 39 38 38 38 38 36 36 36 35 34 33 33 33
31 31 32 32 31 32 33 33 35 36 36 36 36 35 35 35 35 36 36 36 36 36 37 37 37 37 38 38 39 39 38 38 38 38 38 37 36 35 34 33 33 33 33
30 31 31 31 30 31 31 32 33 34 36 36 35 34 33 34 34 35 35 35 36 36 36 37 37 37 37 37 37 37 37 37 38 37 37 35 34 34 34 34 34 33 33
30 30 30 29 30 30 30 31 32 32 33 33 33 33 33 33 34 34 34 35 35 36 36 36 36 36 35 35 35 35 35 35 35 35 35 35 35 34 34 34 34 33 33
30 30 30 30 30 30 30 31 32 31 31 31 31 32 33 33 34 34 33 34 34 35 35 34 34 34 33 33 33 33 33 33 33 33 34 34 34 34 33 33 34 33 32
30 30 29 29 29 29 29 30 30 29 29 29 30 30 31 32 34 33 33 33 33 33 33 33 32 32 31 31 31 32 32 32 32 33 33 33 32 32 32 32 32 31 31
29 29 28 28 28 29 29 28 29 28 28 28 29 29 31 32 32 32 32 32 32 32 32 31 30 30 29 30 30 30 31 31 31 31 32 32 32 31 31 31 30 31 31
28 28 27 27 27 28 28 28 27 27 27 27 28 29 29 30 30 31 32 32 32 31 31 30 30 29 29 29 29 29 30 30 30 30 31 31 31 31 31 30 30 30 30
27 26 26 26 26 27 27 27 27 27 26 26 27 28 28 29 30 30 30 31 30 30 30 29 29 29 29 29 30 30 30 30 30 30 31 31 31 30 29 29 29 29 29
26 25 25 25 26 25 26 27 27 27 26 26 26 27 28 28 29 29 29 29 29 29 29 28 28 28 28 28 28 29 29 30 30 30 31 30 29 29 27 27 28 28 27
Wind_Direction
267 268 269 269 270 270 271 271 271 272 272 271 270 269 269 268 268 268 268 269 269 269 269 270 270 271 272 274 274 275 277 277 278 278 279 280 281 281 281 281 280 280 279
267 268 269 270 270 270 270 271 271 270 271 272 271 269 269 269 269 269 268 268 269 270 270 270 270 271 272 273 273 275 276 276 276 277 278 279 280 281 280 280 280 279 278
267 269 270 270 270 270 270 269 270 269 269 270 270 270 270 269 270 270 269 268 268 269 269 270 270 270 271 272 273 274 275 276 276 277 277 278 278 279 279 279 279 278 277
268 269 270 270 269 269 269 269 269 269 269 270 270 270 270 269 269 270 270 269 268 269 268 268 270 269 270 271 272 273 274 274 276 276 276 277 277 277 278 279 279 278 278
268 269 269 269 268 269 269 269 268 269 269 269 269 270 270 270 269 269 271 271 270 269 267 267 269 269 269 270 271 272 272 274 275 276 276 277 276 276 277 278 278 278 277
269 268 267 267 267 267 268 268 268 269 269 269 269 269 270 270 270 270 270 271 270 268 267 267 269 270 271 270 271 272 271 273 274 275 276 277 277 277 276 277 277 277 278
269 268 267 266 266 266 267 267 268 268 268 269 269 268 268 270 270 269 269 270 270 268 267 267 269 270 271 271 272 271 272 272 273 274 276 277 277 278 277 276 276 276 277
270 268 267 266 266 266 267 266 267 268 268 268 268 268 267 267 269 269 269 269 269 269 267 267 269 269 270 272 273 272 271 271 272 272 274 276 277 278 278 277 276 276 276
270 269 267 266 265 266 266 266 267 268 267 267 268 268 268 268 268 267 268 268 269 270 269 268 268 268 269 270 272 272 272 271 271 271 272 274 275 277 277 277 277 276 276
270 269 268 266 266 266 266 266 267 268 267 267 267 267 268 269 269 267 268 269 269 269 269 268 268 269 270 270 270 272 272 271 272 271 272 274 274 275 276 277 278 276 276
270 270 269 268 267 267 267 267 267 267 267 267 267 267 267 268 269 269 269 269 269 269 269 269 269 269 269 270 270 271 272 273 273 272 272 274 274 275 275 277 277 278 277
271 270 270 269 269 268 268 268 267 267 267 266 266 266 267 267 269 271 271 269 269 269 270 270 269 268 269 269 270 270 271 272 272 272 273 274 274 275 277 277 278 278 277
271 272 271 269 269 270 270 269 268 268 266 266 265 265 266 267 271 272 271 270 269 269 270 269 268 268 268 268 268 268 270 271 271 272 273 275 275 275 276 278 279 278 278
272 272 272 269 270 270 269 269 268 267 267 265 264 265 266 267 272 272 271 270 270 270 270 270 269 268 267 266 266 267 268 270 271 273 273 274 276 277 277 278 279 279 278
272 273 272 270 272 271 270 268 268 266 266 266 266 266 268 269 270 270 270 271 272 271 270 270 270 269 268 267 266 267 269 270 270 271 271 273 276 278 278 278 279 279 280
273 274 273 272 272 271 272 270 268 266 268 268 268 269 269 268 269 269 270 272 272 271 272 271 270 269 268 268 267 267 268 270 271 269 270 272 274 277 277 278 279 279 281
273 274 274 273 271 271 271 272 270 268 268 270 270 269 268 268 269 270 271 272 272 273 274 272 271 269 269 268 268 268 268 269 269 269 270 271 273 275 277 277 277 279 280
273 275 274 274 273 273 273 273 272 271 271 271 270 269 268 269 270 271 273 273 274 275 274 273 271 270 270 270 269 267 267 268 268 269 270 271 273 275 275 275 276 278 279
275 276 275 275 275 275 275 276 274 272 271 270 269 268 269 270 270 271 273 274 275 276 275 274 273 271 270 270 269 267 266 266 267 268 269 271 273 275 276 275 277 278 279
277 277 276 277 277 277 277 277 274 274 272 269 268 268 269 270 271 272 273 275 276 276 276 275 274 272 270 270 269 268 266 266 267 268 269 270 274 277 277 277 278 278 280
278 278 278 279 278 278 277 276 275 274 272 270 268 268 269 269 270 272 274 275 276 277 276 274 273 272 270 268 268 268 266 266 268 269 270 272 274 276 278 279 280 278 279
279 279 280 282 280 279 277 276 275 274 273 271 269 270 269 267 269 271 273 275 277 278 276 274 273 271 270 268 267 267 265 265 267 270 271 271 273 277 277 279 279 278 278
279 279 281 282 281 280 277 275 274 273 272 271 271 270 270 269 269 270 273 276 277 277 277 274 273 271 269 267 266 266 266 267 269 271 271 272 274 278 277 277 278 279 278
280 279 281 283 283 280 278 276 274 272 272 272 271 271 271 271 271 272 274 276 277 278 277 275 273 269 268 266 265 266 266 267 269 271 272 273 276 277 278 276 275 276 278
279 281 283 284 283 280 278 276 275 273 273 274 273 273 273 273 274 275 276 278 278 278 278 277 274 270 268 267 265 265 266 267 269 271 273 275 276 277 276 276 275 276 277
281 284 285 285 284 280 277 276 276 275 275 274 274 276 274 274 275 276 277 279 279 279 278 277 274 270 267 266 265 266 268 269 269 271 273 274 276 276 274 273 274 274 275
Height
5763 5763 5763 5763 5763 5763 5763 5763 5763 5763 5763 5763 5763 5764 5765 5766 5767 5768 5769 5770 5770 5770 5771 5771 5771 5771 5771 5771 5771 5771 5770 5770 5769 5769 5768 5767 5766 5765 5765 5764 5763 5762 5761
5753 5753 5754 5753 5753 5753 5753 5753 5754 5754 5754 5754 5754 5755 5756 5757 5758 5759 5760 5760 5761 5761 5761 5761 5762 5762 5762 5762 5762 5761 5761 5761 5760 5760 5759 5759 5758 5757 5756 5755 5754 5753 5752
5742 5743 5743 5743 5743 5743 5744 5744 5744 5744 5744 5745 5745 5746 5746 5747 5748 5749 5750 5750 5751 5751 5751 5751 5752 5752 5752 5752 5752 5752 5751 5751 5751 5751 5750 5750 5749 5748 5747 5746 5746 5745 5744
5731 5731 5732 5732 5732 5733 5733 5734 5734 5734 5735 5735 5736 5736 5737 5737 5738 5739 5740 5740 5740 5740 5741 5741 5742 5742 5742 5742 5742 5742 5742 5741 5741 5741 5741 5740 5739 5739 5738 5737 5737 5736 5735
5720 5720 5721 5721 5722 5722 5722 5723 5723 5724 5725 5725 5725 5726 5727 5728 5728 5729 5729 5730 5730 5730 5731 5731 5731 5732 5732 5732 5732 5732 5732 5732 5731 5731 5730 5730 5729 5729 5728 5728 5727 5726 5725
5708 5709 5709 5710 5711 5711 5712 5712 5712 5713 5714 5714 5715 5716 5717 5717 5718 5719 5719 5720 5720 5720 5720 5721 5721 5722 5722 5722 5722 5722 5722 5722 5721 5721 5721 5720 5719 5719 5718 5718 5717 5716 5716
5697 5697 5698 5699 5699 5700 5701 5701 5702 5702 5703 5703 5704 5705 5707 5707 5708 5709 5709 5710 5710 5709 5709 5710 5711 5712 5712 5712 5712 5712 5712 5712 5711 5711 5711 5710 5710 5709 5708 5708 5707 5706 5706
5686 5686 5687 5687 5688 5689 5689 5690 5690 5691 5692 5692 5693 5694 5696 5698 5698 5699 5699 5699 5699 5699 5699 5700 5701 5701 5702 5702 5702 5701 5701 5702 5701 5701 5701 5700 5700 5699 5698 5697 5697 5696 5696
5676 5676 5676 5676 5677 5677 5678 5678 5679 5680 5681 5682 5682 5683 5684 5686 5688 5689 5689 5689 5689 5689 5689 5690 5690 5691 5691 5691 5691 5691 5691 5691 5691 5691 5690 5690 5690 5689 5688 5687 5686 5686 5685
5665 5665 5665 5665 5666 5666 5667 5667 5668 5669 5670 5671 5672 5672 5674 5675 5676 5678 5679 5678 5678 5678 5679 5679 5679 5680 5680 5681 5681 5681 5681 5681 5681 5681 5680 5680 5679 5679 5678 5677 5676 5675 5675
5656 5655 5655 5655 5656 5656 5657 5657 5658 5659 5660 5660 5661 5662 5663 5664 5665 5666 5668 5668 5668 5668 5668 5668 5669 5669 5670 5670 5670 5671 5671 5671 5670 5670 5670 5669 5669 5668 5668 5667 5666 5665 5664
5646 5645 5645 5645 5645 5646 5647 5647 5648 5649 5649 5650 5651 5652 5653 5654 5655 5655 5656 5656 5657 5658 5657 5657 5658 5658 5659 5659 5659 5660 5660 5660 5660 5660 5660 5659 5659 5658 5658 5657 5656 5655 5654
5636 5636 5636 5636 5636 5636 5637 5637 5638 5639 5639 5640 5641 5642 5643 5645 5645 5645 5645 5646 5646 5647 5646 5646 5646 5647 5647 5648 5648 5649 5650 5650 5649 5649 5649 5649 5648 5648 5647 5647 5646 5645 5644
5627 5626 5626 5626 5627 5627 5628 5628 5628 5629 5630 5630 5631 5633 5634 5635 5635 5635 5635 5635 5636 5637 5636 5636 5635 5636 5636 5637 5638 5638 5639 5639 5639 5639 5639 5638 5638 5638 5637 5637 5636 5635 5634
5618 5618 5617 5617 5618 5618 5618 5619 5619 5619 5620 5621 5622 5624 5624 5625 5625 5625 5625 5625 5626 5626 5627 5626 5625 5625 5626 5627 5627 5628 5628 5628 5628 5628 5628 5628 5628 5628 5627 5627 5626 5625 5625
5610 5609 5609 5609 5609 5609 5610 5610 5610 5610 5611 5612 5612 5613 5614 5614 5614 5614 5615 5615 5615 5615 5616 5616 5616 5615 5616 5616 5616 5617 5618 5618 5618 5618 5618 5618 5618 5618 5617 5617 5616 5616 5615
5602 5601 5601 5600 5600 5601 5601 5601 5601 5602 5602 5603 5603 5603 5604 5604 5604 5605 5605 5605 5604 5604 5605 5606 5605 5605 5605 5605 5606 5606 5607 5607 5607 5607 5608 5608 5608 5608 5608 5607 5607 5606 5606
5594 5593 5592 5592 5592 5592 5592 5591 5591 5592 5592 5593 5594 5594 5595 5595 5595 5595 5595 5595 5594 5594 5595 5595 5595 5595 5594 5594 5595 5596 5596 5596 5597 5597 5597 5598 5598 5598 5598 5597 5597 5596 5596
5585 5585 5584 5584 5584 5583 5583 5582 5582 5582 5583 5583 5584 5584 5585 5585 5585 5585 5585 5585 5585 5584 5584 5584 5584 5584 5584 5583 5584 5585 5585 5586 5586 5587 5587 5588 5588 5588 5588 5587 5587 5587 5586
5577 5576 5576 5575 5575 5574 5573 5573 5573 5573 5573 5573 5574 5575 5575 5576 5576 5576 5576 5576 5575 5574 5574 5573 5573 5573 5573 5573 5573 5574 5575 5576 5577 5577 5578 5578 5579 5578 5578 5577 5578 5577 5577
5568 5568 5567 5567 5566 5565 5565 5564 5564 5564 5563 5564 5564 5565 5566 5566 5567 5567 5567 5566 5565 5564 5563 5563 5562 5562 5563 5563 5564 5565 5566 5567 5567 5568 5569 5569 5569 5569 5568 5567 5567 5566 5567
5560 5559 5559 5558 5557 5556 5556 5555 5555 5555 5555 5554 5555 5555 5556 5557 5557 5557 5557 5556 5555 5554 5553 5553 5553 5552 5553 5553 5554 5555 5556 5558 5559 5560 5560 5560 5560 5560 5559 5558 5557 5557 5557
5551 5551 5550 5549 5548 5548 5547 5547 5546 5546 5546 5546 5546 5547 5547 5548 5548 5548 5547 5546 5546 5544 5544 5544 5543 5543 5544 5545 5546 5547 5548 5549 5550 5550 5551 5551 5551 5550 5550 5549 5548 5548 5548
5543 5542 5542 5540 5539 5539 5539 5538 5538 5537 5537 5537 5537 5538 5538 5539 5538 5538 5537 5537 5536 5535 5535 5534 5534 5534 5534 5535 5536 5538 5539 5540 5540 5541 5541 5542 5542 5542 5541 5540 5540 5539 5539
5535 5534 5533 5532 5531 5531 5530 5530 5529 5529 5529 5528 5528 5529 5529 5529 5529 5528 5528 5527 5527 5526 5525 5524 5524 5525 5525 5526 5527 5528 5530 5530 5532 5532 5532 5533 5533 5532 5533 5532 5531 5530 5530
5527 5526 5525 5524 5524 5523 5522 5521 5521 5520 5520 5520 5520 5520 5520 5520 5520 5518 5518 5518 5518 5517 5516 5516 5515 5516 5517 5517 5518 5520 5520 5522 5523 5524 5523 5523 5524 5523 5525 5525 5523 5522 5521